This is the latest recevied weather packets stored in our database for station/object OK1LPD-5. If no packets are shown the sender has not sent any weather packets the latest 10 day(s).
| Time | Temp. | Humidity | Pressure | Rain* | Wind** | Luminosity | Snow |
|---|---|---|---|---|---|---|---|
| 1777736411 | 23.89° C | 27% | 1011.5 hPa | 0 mm | - | - | - |
| 1777735811 | 23.89° C | 26% | 1011.2 hPa | 0 mm | - | - | - |
| 1777735209 | 23.89° C | 28% | 1011.4 hPa | 0 mm | - | - | - |
| 1777734613 | 24.44° C | 26% | 1011.5 hPa | 0 mm | - | - | - |
| 1777734010 | 24.44° C | 26% | 1011.6 hPa | 0 mm | - | - | - |
| 1777733409 | 25° C | 27% | 1011.7 hPa | 0 mm | - | - | - |
| 1777732811 | 25° C | 27% | 1011.6 hPa | 0 mm | - | - | - |
| 1777732211 | 25° C | 28% | 1011.8 hPa | 0 mm | - | - | - |
| 1777731608 | 25.56° C | 26% | 1011.9 hPa | 0 mm | - | - | - |
| 1777731011 | 25.56° C | 28% | 1012 hPa | 0 mm | - | - | - |
| 1777730409 | 26.11° C | 28% | 1012 hPa | 0 mm | - | - | - |
| 1777729809 | 26.67° C | 27% | 1012 hPa | 0 mm | - | - | - |
| 1777729211 | 27.78° C | 26% | 1012.2 hPa | 0 mm | - | - | - |
| 1777728609 | 27.78° C | 28% | 1012.2 hPa | 0 mm | - | - | - |
| 1777728008 | 27.78° C | 31% | 1012.3 hPa | 0 mm | - | - | - |
| 1777727414 | 27.78° C | 29% | 1012.6 hPa | 0 mm | - | - | - |
| 1777726808 | 27.22° C | 28% | 1012.8 hPa | 0 mm | - | - | - |
| 1777726209 | 26.67° C | 29% | 1012.8 hPa | 0 mm | - | - | - |
| 1777725611 | 27.22° C | 31% | 1013.1 hPa | 0 mm | - | - | - |
| 1777725008 | 26.67° C | 30% | 1013.3 hPa | 0 mm | - | - | - |
| 1777724408 | 26.67° C | 30% | 1013.6 hPa | 0 mm | - | - | - |
| 1777723811 | 26.11° C | 34% | 1013.8 hPa | 0 mm | - | - | - |
| 1777723209 | 25.56° C | 33% | 1014.1 hPa | 0 mm | - | - | - |
| 1777722608 | 25.56° C | 30% | 1014.4 hPa | 0 mm | - | - | - |
| 1777722012 | 25.56° C | 33% | 1014.6 hPa | 0 mm | - | - | - |
* Rain latest hour (hover to see other rain measurements)
** Current wind speed in m/s (hover to see current wind gust speed)